Regional Weather Roundup
Issued by NWS

Home | Current Version | Previous Version | Graphics & Text | Print | Product List | Glossary On
Versions: 1 2 3 4 5 6 7 8 9 10 11 12 13 14 15 16 17 18 19 20 21 22 23 24 25 26 27 28 29 30 31 32 33 34 35 36 37 38 39 40 41 42 43 44 45 46 47 48 49 50
000
ASUS43 KOAX 272110
RWRNE

WEATHER ROUNDUP FOR NEBRASKA
NATIONAL WEATHER SERVICE OMAHA NE
300 PM CST TUE JAN 27 2015

NOTES: SATELLITE DATA IS BEING USED TO AUGMENT CLOUD COVER ABOVE
       12000 FEET.
       "FAIR" INDICATES FEW OR NO CLOUDS BELOW 12,000 FEET WITH NO
       SIGNIFICANT WEATHER AND/OR OBSTRUCTIONS TO VISIBILITY.

  * THESE STATIONS DO NOT REPORT WEATHER SUCH AS RAIN...SNOW OR FOG.

NEZ001>004-019>022-054>056-272200-
NEBRASKA PANHANDLE

CITY           SKY/WX    TMP DP  RH WIND       PRES   REMARKS
SCOTTSBLUFF      N/A    N/A N/A N/A MISG      29.99F
ALLIANCE       SUNNY     71  29  21 W7        29.97F
CHADRON        SUNNY     68  30  24 NW5       29.94F
KIMBALL        SUNNY     73  22  14 NW3       30.02F
SIDNEY         SUNNY     73  24  16 NW8       30.02F
$$

NEZ057>060-069>072-079>082-272200-
SOUTHWEST NEBRASKA

CITY           SKY/WX    TMP DP  RH WIND       PRES   REMARKS
NORTH PLATTE   SUNNY     70  30  22 CALM      29.94F
IMPERIAL       SUNNY     75  25  15 W7        29.98F
LEXINGTON      SUNNY     70  31  24 CALM      29.94F
MCCOOK         SUNNY     72  30  21 W3        29.96F
OGALLALA       SUNNY     74  29  19 NW8       29.97F
$$

NEZ005>010-023>029-035>040-094-272200-
NORTH CENTRAL NEBRASKA

CITY           SKY/WX    TMP DP  RH WIND       PRES   REMARKS
VALENTINE      SUNNY     70  32  24 W6        29.90F
AINSWORTH      SUNNY     69  31  24 W6        29.90F
BROKEN BOW     SUNNY     70  34  26 VRB5      29.93F
O`NEILL        SUNNY     61  36  39 S12       29.92S
ORD            SUNNY     59  34  39 SE8       29.93F
THEDFORD       SUNNY     74  32  21 SW5       29.93S
$$

NEZ041-046>049-061>064-073>077-083>087-272200-
SOUTH CENTRAL NEBRASKA

CITY           SKY/WX    TMP DP  RH WIND       PRES   REMARKS
GRAND ISLAND   SUNNY     62  33  33 S10       29.97F
AURORA         SUNNY     62  33  33 S12       29.96F
HASTINGS       SUNNY     65  30  27 SE7       29.95F
HEBRON         SUNNY     63  30  28 S12G23    29.98F
HOLDREGE       SUNNY     65  30  26 SW7       29.95F
KEARNEY *      SUNNY     64  34  32 S6        29.95F
YORK           SUNNY     57  34  41 S14G20    29.98F
$$

NEZ011>018-030>034-042>045-272200-
NORTHEAST NEBRASKA

CITY           SKY/WX    TMP DP  RH WIND       PRES   REMARKS
NORFOLK        SUNNY     55  34  45 S16       29.97F
ALBION         SUNNY     57  34  41 S13G21    29.96F
BLAIR          SUNNY     53  32  44 SE10      30.03F
COLUMBUS *     SUNNY     57  36  44 SE10      30.00F
FREMONT        SUNNY     54  32  44 SE9       30.02F
TEKAMAH        SUNNY     52  35  52 SE12      30.04F
WAYNE          SUNNY     53  35  51 S14       30.00F
$$

NEZ050>053-065>068-078-088>093-272200-
SOUTHEAST NEBRASKA

CITY           SKY/WX    TMP DP  RH WIND       PRES   REMARKS
LINCOLN        SUNNY     58  33  39 SE12      30.02F
OMAHA EPPLEY   MOSUNNY   52  34  50 S10       30.05F
BEATRICE       SUNNY     60  33  35 S13       30.00F
FALLS CITY     SUNNY     56  31  38 SE10      30.05F
NEBRASKA CITY  SUNNY     53  27  36 SE10      30.04F
PLATTSMOUTH    SUNNY     53  30  41 SE13      30.04F
$$

NEZ044-045-051>053-067-272200-
OMAHA AREA

CITY           SKY/WX    TMP DP  RH WIND       PRES   REMARKS
OMAHA EPPLEY   MOSUNNY   52  34  50 S10       30.05F
BLAIR          SUNNY     53  32  44 SE10      30.03F
FREMONT        SUNNY     54  32  44 SE9       30.02F
MILLARD        SUNNY     54  33  45 SE10      30.04F
OFFUTT AFB     SUNNY     54  33  45 SE12      30.04F
PLATTSMOUTH    SUNNY     53  30  41 SE13      30.04F
WAHOO          FAIR      55  29  36 SE13      30.02S
$$


USA.gov is the U.S. government's official web portal to all federal, state and local government web resources and services.